Volver al catálogo

USA 362

ActivoMilitarVLEO
NORAD 59822·PAYLOAD·🇺🇸 United States

Lanzado May 22, 2024 desde Vandenberg Space Force Base

Loading…

Próximos Pases (próximas 24 horas)

TLE

ObsoletoSource: Mike McCants

Época: Sep 5, 2026, 18:50 UTC

1 59822U 24096J   26248.78528741 0.00000000  00000-0  00000-0 0    04
2 59822  70.0190 124.4127 0002000 244.8087 115.1913 14.96713508    06

Sigue USA 362 en tiempo real con AllMySat

Download on the App Store